Weather History for Tatalina, AK

Change the Weather History Date:

Thursday, December 6, 2012

  Actual Average Record
Temperature  
Mean Temperature -10 °F -  
Max Temperature -9 °F 8 °F 37 °F (2002)
Min Temperature -12 °F 0 °F -20 °F (1996)
Degree Days  
Heating Degree Days 76    
Moisture  
Dew Point -14 °F    
Average Humidity 83    
Maximum Humidity 85    
Minimum Humidity 82    
Precipitation  
Precipitation 0.00 in - - ()
Sea Level Pressure  
Sea Level Pressure 30.07 in    
Wind  
Wind Speed 3 mph (East)    
Max Wind Speed 6 mph    
Max Gust Speed -    
Visibility 10 miles    
Events      
Averages and records for this station are not official NWS values.
T = Trace of Precipitation, MM = Missing Value Source: NWS Daily Summary

Daily Weather History Graph

Daily Weather History Graph

Search for Another Location

Airport:

Trip Planner

Search our weather history database for the weather conditions in past years. The results will help you decide how hot, cold, wet, or windy it might be!

Date:

Astronomy

Dec. 06, 2012 Rise Set
Actual Time 10:39 AM AKST 3:50 PM AKST
Civil Twilight 9:32 AM AKST 4:57 PM AKST
Nautical Twilight 8:29 AM AKST 6:00 PM AKST
Astronomical Twilight 7:33 AM AKST 6:57 PM AKST
Moon 12:48 AM AKST (12/6) 1:29 PM AKST (12/6)
Length of Visible Light 7h 24m
Length of Day
5h 10m
Waning Gibbous, 48% of the Moon is Illuminated
Dec 6
Waning Gibbous
Dec 12
New
Dec 19
First Quarter
Dec 28
Full
Jan 4
Last Quarter

Hourly Weather History & Observations

Time (AKST) Temp. Windchill Dew Point Humidity Pressure Visibility Wind Dir Wind Speed Gust Speed Precip Events Conditions
12:55 AM -11.2 °F -24.8 °F -15.0 °F 83% 29.96 in 10.0 mi ENE 5.8 mph - N/A   Partly Cloudy
1:55 AM -10.1 °F -21.7 °F -13.7 °F 84% 29.97 in 10.0 mi NE 4.6 mph - N/A   Partly Cloudy
3:55 AM -11.4 °F -20.8 °F -15.3 °F 83% 29.99 in 10.0 mi ENE 3.5 mph - N/A   Partly Cloudy
4:55 AM -10.8 °F -22.5 °F -14.3 °F 85% 29.99 in 10.0 mi NE 4.6 mph - N/A   Clear
5:55 AM -12.6 °F - -16.4 °F 83% 30.00 in 10.0 mi SW 2.3 mph - N/A   Partly Cloudy
6:55 AM -12.8 °F - -17.0 °F 82% 30.01 in 10.0 mi SW 2.3 mph - N/A   Partly Cloudy
7:55 AM -12.3 °F - -16.4 °F 82% 30.01 in 10.0 mi Variable 1.2 mph - N/A   Partly Cloudy
8:55 AM -11.4 °F - -15.2 °F 83% 30.02 in 10.0 mi Variable 1.2 mph - N/A   Clear
9:55 AM -11.0 °F -20.4 °F -14.8 °F 83% 30.04 in 10.0 mi SW 3.5 mph - N/A   Partly Cloudy
10:55 AM -10.5 °F - -14.3 °F 83% 30.06 in 10.0 mi ESE 1.2 mph - N/A   Partly Cloudy
11:55 AM -10.5 °F - -14.4 °F 83% 30.08 in 10.0 mi WSW 1.2 mph - N/A   Clear
12:55 PM -9.6 °F - -13.2 °F 84% 30.09 in 10.0 mi SE 2.3 mph - N/A   Clear
1:55 PM -9.0 °F - -12.5 °F 85% 30.10 in 10.0 mi Variable 1.2 mph - N/A   Clear
2:55 PM -9.2 °F - -13.0 °F 83% 30.11 in 10.0 mi East 2.3 mph - N/A   Clear
3:55 PM -9.4 °F - -13.2 °F 83% 30.11 in 10.0 mi NE 2.3 mph - N/A   Clear
4:55 PM -9.4 °F - -13.4 °F 83% 30.12 in 10.0 mi Variable 2.3 mph - N/A   Partly Cloudy
5:55 PM -9.8 °F - -13.4 °F 84% 30.12 in 10.0 mi Variable 1.2 mph - N/A   Partly Cloudy
6:55 PM -9.9 °F - -13.7 °F 83% 30.14 in 10.0 mi Variable 1.2 mph - N/A   Partly Cloudy
7:55 PM -9.9 °F - -13.9 °F 83% 30.15 in 10.0 mi East 1.2 mph - N/A   Partly Cloudy
8:55 PM -10.3 °F - -14.4 °F 82% 30.15 in 10.0 mi NW 1.2 mph - N/A   Scattered Clouds
9:55 PM -9.8 °F - -13.4 °F 84% 30.16 in 10.0 mi NE 1.2 mph - N/A   Mostly Cloudy
10:55 PM -9.4 °F - -13.5 °F 82% 30.16 in 10.0 mi North 1.2 mph - N/A   Scattered Clouds
11:55 PM -9.8 °F - -13.4 °F 84% 30.17 in 10.0 mi SE 1.2 mph - N/A   Mostly Cloudy